map of KTM home
KTM - Airport
Location
City:  Kathmandu, Nepal
Name:Tribhuvan International Airport
Old (Alt.):Gauchar Airport
ICAO:VNKT
IATA:KTM

Details
Type:Airport (Aerodrome, Airfield)
Use:Public/Civil, International (customs port of entry)
Latitude:27°41'48"N (27.696583)
Longitude:85°21'33"E (85.359100)
Datum:WGS 1984
Elevation:4390 ft (1338 m)
Variation:0.45°E (WMM2015 magnetic declination)
0.05° annual change
Runways:1
Longest:10007 × 148 ft (3050 × 45 m), paved

Time
Time Zone:UTC+5:45
Local Time:

Weather
METAR:VNKT 231350Z 23008KT 6000 FEW020 16/07 Q1015 NOSIG
TAF:VNKT 231100Z 2312/2412 28008KT 7000 FEW020
BECMG 2314/2315 VRB02KT 6000 FEW015
BECMG 2400/2402 00000KT 3000 BR
BECMG 2404/2405 15003KT 5000 HZ FEW015
BECMG 2407/2408 22010KT 8000 FEW020

Related Locations
Nearby:
Farthest:SCFX: 11544 mi / 18579 km
Isla San Félix, Desventuradas Islands, VS, CL

Find:

   beyond  
but within

Other Information
Maps:
NOTAMs:
Links:
Sources:

  
flag of Nepal   

Sectional Chart

Flight Planning
at skyvector.com

Satellite Image

Google Maps Satellite view

 

Copyright © 2004-2017 Karl L. Swartz. All rights reserved.
The Great Circle Mapper name and logo are trademarks of the Great Circle Mapper.
All other trademarks mentioned herein belong to their respective owners.
Please see credits for attibutions and further copyright information.

  Follow gcmap on Facebook Follow gcmap on Twitter Follow gcmap on Google+ GCmap on LinkedIn

hCard Microformat

Geo Microformat